Location: Arbon
(43.0005°N, 0.7472°E)
Time: 01:36:50
(UTC+00:00)

S-56A Canister/Altair - Pass Details

Date: 11 December 2020
Orbit: 633 x 2499 km, 38.9° (Epoch: 19 January)

Event Time Altitude Azimuth Distance (km) Brightness Sun altitude
Rises 18:48:00 0° 273° (W) 6,115 13.4 -25.7°
Reaches altitude 10° 18:52:15 10° 271° (W) 4,994 12.6 -26.5°
Maximum altitude 19:05:57 69° 193° (SSW) 2,016 9.5 -29.0°
Enters shadow 19:09:57 44° 127° (SE) 2,260 9.5 -29.7°
